Location: Rounton
(54.4000°N, 1.3500°W)
Time: 07:50:24
(UTC+00:00)

Tiros 1 despin weight - Pass Details

Date: 01 December 2021
Orbit: 592 x 641 km, 48.2° (Epoch: 19 January)

Event Time Altitude Azimuth Distance (km) Brightness Sun altitude
Rises 16:13:43 0° 246° (WSW) 2,823 ? -4.2°
Reaches altitude 10° 16:16:08 10° 238° (WSW) 1,921 ? -4.5°
Maximum altitude 16:20:08 35° 172° (S) 960 ? -5.0°
Drops below altitude 10° 16:24:10 10° 107° (ESE) 1,928 ? -5.5°
Enters shadow 16:26:28 - 98° (E) 2,792 ? -5.8°
Sets 16:26:35 0° 98° (E) 2,834 - -5.8°
